Location: Kruen
(47.5000°N, 11.5000°E)
Time: 22:28:50
(UTC+01:00)

ISS - Pass Details

Date: 24 September 2020
Orbit: 417 x 420 km, 51.6° (Epoch: 27 October)

Event Time Altitude Azimuth Distance (km) Brightness Sun altitude
Rises 20:11:59 0° 264° (W) 2,362 1.7 -11.7°
Reaches altitude 10° 20:14:08 10° 271° (W) 1,500 0.5 -12.1°
Maximum altitude 20:17:24 48° 347° (NNW) 557 -3.0 -12.6°
Enters shadow 20:19:56 16° 59° (ENE) 1,211 -1.8 -13.1°
